Other Surface Observations
Issued by NWS

Current Version | Previous Version | Text Only | Print | Product List | Glossary On
Versions: 1 2 3 4 5 6 7 8 9 10 11 12 13 14 15 16 17 18 19 20 21 22 23 24 25 26 27 28 29 30 31 32 33 34 35 36 37 38 39 40 41 42 43 44 45 46 47 48 49 50
000
SXPA56 KWBC 250759
OSOHW
:SHEF ENCODED 6-MINUTE NOS MET DATA
:NATIONAL WATER LEVEL OBSERVATION NETWORK (NWLON)
:TA(AIR TEMP DEG F)  SLP(SEA LEVEL PRESSURE INCHES)
:UD(WIND DIRECTION WHOLE DEGREES) US(WIND SPEED MPH)
:TW(WATER TEMP DEG F) UG(WIND GUSTS MPH) WC(CONDUCTIVITY uMHOS/CM)
:PP(PRECIPITATION IN) XV(VISIBILITY SM)
:-9999 (MISSING VALUES)
:PROVIDED BY DOC/NOAA/NOS/CO-OPS, (301) 713-2540
:corms@noaa.gov
.A NWWH1 20220925 Z DH0748/TAIRP    76/UGIRP -9999/PLIRP 30.03/UDIRP -9999/USIRP -9999/TWIRP -9999/WCIRP -9999
.E NWWH1 20220925 Z DH0742/TAIRG/DIN06/   76/-9999
.E NWWH1 20220925 Z DH0742/PLIRG/DIN06/30.03/-9999
.E NWWH1 20220925 Z DH0742/TWIRG/DIN06/   87/   87
.A OOUH1 20220925 Z DH0742/TAIRG    79/UGIRG     2/PLIRG 30.01/UDIRG    73/USIRG     0/TWIRG    82/WCIRG -9999
.A MOKH1 20220925 Z DH0742/TAIRG    80/UGIRG -9999/PLIRG 30.00/UDIRG -9999/USIRG -9999/TWIRG    83/WCIRG -9999
.E KLIH1 20220925 Z DH0736/TAIRG/DIN06/   79/   79
.E KLIH1 20220925 Z DH0736/PLIRG/DIN06/30.00/30.00
.E KLIH1 20220925 Z DH0736/USIRG/DIN06/    3/    3
.E KLIH1 20220925 Z DH0736/UDIRG/DIN06/   69/   41
.E KLIH1 20220925 Z DH0736/UGIRG/DIN06/    5/    4
.E KLIH1 20220925 Z DH0736/TWIRG/DIN06/   82/   82
.E KWHH1 20220925 Z DH0742/TAIRG/DIN06/   81/   81
.E KWHH1 20220925 Z DH0742/PLIRG/DIN06/29.99/29.99
.E KWHH1 20220925 Z DH0742/USIRG/DIN06/    4/    5
.E KWHH1 20220925 Z DH0742/UDIRG/DIN06/  274/  267
.E KWHH1 20220925 Z DH0742/UGIRG/DIN06/    6/    7
.E KWHH1 20220925 Z DH0742/TWIRG/DIN06/   84/   84
.E KWHH1 20220925 Z DH0742/PPIRG/DIN06/0.00/0.00
.A ILOH1 20220925 Z DH0748/TAIRG    73/UGIRG     6/PLIRG 30.03/UDIRG   164/USIRG     5/TWIRG    81/WCIRG -9999
.A SNDP5 20220925 Z DH0742/TAIRG -9999/UGIRG -9999/PLIRG -9999/UDIRG -9999/USIRG -9999/TWIRG    82/WCIRG -9999
.E APRP7 20220925 Z DH0742/TAIRG/DIN06/   82/   82
.E APRP7 20220925 Z DH0742/PLIRG/DIN06/29.70/29.70
.E APRP7 20220925 Z DH0742/USIRG/DIN06/    7/    7
.E APRP7 20220925 Z DH0742/UDIRG/DIN06/  214/  216
.E APRP7 20220925 Z DH0742/UGIRG/DIN06/   15/   13
.E APRP7 20220925 Z DH0742/TWIRG/DIN06/   84/   84
.E PGBP7 20220925 Z DH0742/PLIRG/DIN06/29.70/29.70
.E PGBP7 20220925 Z DH0742/USIRG/DIN06/   12/   10
.E PGBP7 20220925 Z DH0742/UDIRG/DIN06/  183/  187
.E PGBP7 20220925 Z DH0742/UGIRG/DIN06/   14/   15



USA.gov is the U.S. government's official web portal to all federal, state and local government web resources and services.